Tracking 18856 objects as of 11-Dec-2017
HD Live streaming from Space Station
objects crossing your sky now

SDS-4

Track SDS-4 now!
10-day predictions
SDS-4 is classified as:


NORAD ID: 38339
Int'l Code: 2012-025C
Perigee: 660.6 km
Apogee: 673.1 km
Inclination: 98.4 °
Period: 97.9 minutes
Semi major axis: 7037 km
RCS: 0.47 m2 (medium)
Launch date: May 17, 2012
Source: Japan (JPN)
Launch site: TANEGASHIMA SPACE CENTER (TNSTA)
aabbcc
Your satellite tracking list
Your tracking list is empty




NASA's NSSDC Master Catalog

Two Line Element Set (TLE):
1 38339U 12025C   17344.94776154 +.00000053 +00000-0 +17499-4 0  9990
2 38339 098.4059 343.7821 0008873 082.2306 277.9906 14.70413543298492
Source of the keplerian elements: AFSPC